Regional Weather Roundup
Issued by NWS Wakefield, VA

Home | Current Version | Previous Version | Text Only | Print | Product List | Glossary Off
Versions: 1 2 3 4 5 6 7 8 9 10 11 12 13 14 15 16 17 18 19 20 21 22 23 24 25 26 27 28 29 30 31 32 33 34 35 36 37 38 39 40 41 42 43 44 45 46 47 48 49 50

000
ASUS41 KAKQ 232017
RWRAKQ

REGIONAL WEATHER ROUNDUP
NATIONAL WEATHER SERVICE WAKEFIELD VA
400 PM EDT TUE MAY 23 2017

Note: "fair" indicates few or no clouds below 12,000 feet with no
significant weather and/or obstructions to visibility. * = Denotes
station may not report precipitation (e.g., rain,snow,etc.),
thunder or fog.

VAZ042-051-052>054-056-232100-
NORTHERN VIRGINIA

CITY           SKY/WX    TMP DP  RH WIND       PRES   REMARKS
WASH NATIONAL  CLOUDY    67  60  78 E6        29.86F
DULLES         CLOUDY    65  56  72 N5        29.86F
FORT BELVOIR   CLOUDY    66  59  77 CALM      29.85F
QUANTICO       CLOUDY    67  61  81 E8        29.85F
FREDERICKSBRG* LGT RAIN  65  61  88 E6        29.84F
STAFFORD*      LGT RAIN  64  62  93 NE7       29.88F
WARRENTON      CLOUDY    65  57  76 E3        29.85F
CULPEPER*      CLOUDY    64  60  87 CALM      29.86F
MANASSAS*      CLOUDY    66  59  78 E7        29.85F
LEESBURG*      DRIZZLE   63  59  88 NE5       29.88F
WINCHESTER     CLOUDY    61  54  77 E3        29.86F
FRONT ROYAL*   CLOUDY    61  57  88 N3        29.86F
LURAY*         CLOUDY    63  55  77 N7        29.85F
$$

VAZ048-049-060>072-079>083-232100-
CENTRAL AND SOUTH CENTRAL VIRGINIA

CITY           SKY/WX    TMP DP  RH WIND       PRES   REMARKS
RICHMOND       CLOUDY    64  61  90 NE10      29.81F
CHESTERFIELD*  NOT AVBL
PETERSBURG*    DRIZZLE   63  62  96 NE7       29.81F
HANOVER        CLOUDY    64  61  90 NE6       29.84F FOG
TAPPAHANNOCK*  CLOUDY    65  62  89 NE7       29.85F
QUINTON*       CLOUDY    64  63  99 E5        29.82F
CHARLOTTSVILLE LGT RAIN  63  58  83 NE8       29.84F
GORDONSVILLE*  CLOUDY    61  59  93 NE3       29.84F
ORANGE*        LGT RAIN  61  57  88 NE3       29.85F
LOUISA*        DRIZZLE   66  64  94 CALM      29.83F
BUMPASS*       CLOUDY    63  63  99 NW3       29.84F
FARMVILLE*     RAIN      64  61  91 NE7       29.80
CREWE*         CLOUDY    64  60  87 NE5       29.81F
FORT PICKETT*  CLOUDY   N/A N/A N/A NE7       29.81S
CHASE CITY*    CLOUDY    63  61  94 NE6       29.78F
CLARKSVILLE*   CLOUDY    63  63 100 NE6       29.76F
SOUTH HILL*    CLOUDY    64  64 100 N8        29.82F
LAWRENCEVILLE* CLOUDY    63  62  97 NE7       29.77F
EMPORIA*       LGT RAIN  63  63 100 N6        29.78F
$$

VAZ088>098-232100-
SOUTHEAST VIRGINIA

CITY           SKY/WX    TMP DP  RH WIND       PRES   REMARKS
NORFOLK        LGT RAIN  62  61  96 E10G23    29.79F
VIRGINIA BEACH LGT RAIN  61  60  97 E9        29.78F FOG
NORFOLK NAVAL  LGT RAIN  63  61  93 E13       29.81F
WEST POINT*    CLOUDY    64  61  91 NE8       29.83F
SALUDA*        CLOUDY    63  61  94 E7        29.82F
NEWPORT NEWS   CLOUDY    63  61  93 E16G23    29.81F
LANGLEY AFB    LGT RAIN  63  63  99 E15       29.79F
FORT EUSTIS    CLOUDY    64  61  88 E9        29.77F
WILLIAMSBURG*  CLOUDY    64  64 100 CALM      29.81F
HR EXEC AP*    CLOUDY    66  63  88 E7        29.78S
FRANKLIN*      DRIZZLE   65  64  95 E9        29.77F
US460-WAKEFLD  CLOUDY    64  63  96 NE8       29.79F FOG
$$

VAZ020-022-025-037-045-232100-
WEST CENTRAL AND SOUTHWEST VIRGINIA

CITY           SKY/WX    TMP DP  RH WIND       PRES   REMARKS
STAUNTON*      CLOUDY    61  51  71 NE5       29.87F
WAYNESBORO*    CLOUDY    57  55  91 NE5       29.86F
HOT SPRINGS VA NOT AVBL
LYNCHBURG      LGT RAIN  59  57  93 NE13      29.82F FOG
DANVILLE       LGT RAIN  61  61 100 NE9       29.77F
SOUTH BOSTON*  CLOUDY    63  61  94 NE6       29.78F
MARTINSVILLE   RAIN      59  57  94 N3        29.82S
ROANOKE        RAIN      59  58  96 CALM      29.83F FOG
BLACKSBURG     RAIN      57  56  94 E6        29.85F
DUBLIN*        DRIZZLE   58  55  87 E9        29.83F
MARION*        RAIN      60  57  90 E8        29.82F
HILLSVILLE*    RAIN      58  54  86 E5        29.80S
RICHLANDS*     LGT RAIN  60  60  98 NE3       29.78F
WISE*          LGT RAIN  63  63 100 CALM      29.77F
ABINGDON*      LGT RAIN  64  63  97 E9        29.75F
$$

MDZ021>025-VAZ099-100-232100-
SOUTHERN MARYLAND AND THE DELMARVA PENINSULA

CITY           SKY/WX    TMP DP  RH WIND       PRES   REMARKS
PATUXENT RIVER LGT RAIN  63  60  90 E10       29.85F
BAY BRIDGE APT CLOUDY    68  57  68 SE8       29.86F
LEONARDTOWN    CLOUDY    61  57  88 E3        29.88S
DOVER          CLOUDY    65  63  94 E5        29.86F
GEORGETOWN     CLOUDY    63  52  67 E7        29.87F
EASTON         MOSUNNY   66  54  63 MISG      29.90F
CAMBRIDGE      MOSUNNY   63  55  77 E6        29.86F
SALISBURY      CLOUDY    63  56  78 E8        29.85F
OCEAN CITY     CLOUDY    60  55  83 E10       29.86F
WALLOPS ISLAND CLOUDY    59  58  96 NE10      29.86F
ACCOMACK*      CLOUDY    60  45  57 E12       29.84F HAZE
$$

NCZ012>017-030>032-232100-
NORTH CENTRAL AND EASTERN NORTH CAROLINA

CITY           SKY/WX    TMP DP  RH WIND       PRES   REMARKS
ROANOKE RAPIDS LGT RAIN  64  64 100 NE6       29.75F
RALEIGH        RAIN      68  68 100 CALM      29.73F FOG
ELIZABETH CITY CLOUDY    68  68 100 E15       29.75F
AHOSKIE*       RAIN      66  65  96 E5        29.75F
EDENTON*       CLOUDY    71  68  92 CALM      29.75F
CURRITUCK*     DRIZZLE  N/A N/A N/A E9        29.78F
KILL DEVIL HLS NOT AVBL
MANTEO         RAIN      70  69  99 E8        29.75F
CAPE HATTERAS  CLOUDY    76  71  85 SW16G22   29.75F
TARBORO*       NOT AVBL
GOLDSBORO      NOT AVBL
WASHINGTON     CLOUDY    73  70  91 NE5       29.72F
GREENVILLE     LGT RAIN  72  70  94 NE5       29.75F
NEW BERN       LGT RAIN  75  72  90 S9G20     29.72F FOG
WILMINGTON     PTSUNNY   78  69  73 S15       29.73F
$$

VAZ048-232100-
ELSEWHERE

CITY           SKY/WX    TMP DP  RH WIND       PRES   REMARKS
HARRISBURG PA  CLOUDY    66  52  60 SE6       29.87F
BALTIMORE      CLOUDY    64  59  83 E7        29.86F
ANNAPOLIS      CLOUDY    66  61  84 SE5       29.87F
ANDREWS AFB    CLOUDY    64  59  83 E7        29.85F
PHILADELPHIA   CLOUDY    66  52  60 NE5       29.89S
HENDERSON NC   RAIN      63  62  96 NE8       29.75F
GREENSBORO     LGT RAIN  62  62 100 NE14      29.75F FOG
ROCKY MOUNT    LGT RAIN  68  68 100 NE7       29.73F
$$

VAZ100-232100-
MARINE

STATION/POSITION TIME  TEMP    WIND        PRES    WAVE   SWELL
                       AIR SEA DIR/SP/G            HT/PER HT/PER
                 (UTC) (F)     (DEG/KT/KT) (MB)    (FT/S) (FT/S)
CAPE MAY NJ      1948   61 61   70/  6/  9 1011.1F
LEWES DE         1948   60 63  100/  9/ 11 1011.6F
15NM E FENWICK I 1950   57 56   50/ 10/ 12 1011.6F   3/ 6   2/ 6
OCEAN-CITY-INLET 1930   60 64   90/  6/  9 1011.9F
WACHAPREAGUE VA  1948   60 67   50/ 13/ 16 1010.2F
THOMAS POINT MD  2000   64 65  130/  6/  7   N/A
GOOSES REEF MD   2000   64 58  130/ 10/ 12 1012.0    1/ 2
COVE POINT MD    1948   63     120/  6/  8 1011.8F
SOLOMONS ISLAND  1948   63 67   80/  8/ 10   N/A
BISHOPS HEAD MD  1948   63 67   80/  8/ 11 1011.2F
PINEY POINT MD   1942           90/  9/ 11   N/A
POTOMAC MD       2000   63 67   80/ 12/ 14 1009.5    1/ 3
CAMBRIDGE MD     1942   63 69                N/A
LEWISETTA VA     1948   63 69   80/ 12/ 15 1010.3
RAPPAHANNOCK LGT 1942           60/ 14/ 15 1010.8F
STINGRAY PT      1950   63      90/ 12/ 16 1010.1F
YORK RVR RNG VA  1948   62      70/ 19/ 20 1008.8F
YORKTOWN VA      1948   63 69   50/  3/  7 1008.9F
JAMESTOWN VA     2000   64 72   50/  8/ 14   N/A     0
DOMINION TERM VA 1948   63      80/ 13/ 17 1009.2F
KIPTOPEKE VA     1942      66   70/ 12/ 17   N/A
CHES BAY BRIDGE  1948   61 67   70/ 22/ 24 1008.7F
CAPE HENRY VA    1948   61      70/ 19/ 22   N/A
WILLOUBY STN VA  1948   63      70/ 15/ 18 1008.9F
S CRANEY ISL VA  1948   63      70/ 12/ 17 1008.8F
CAPE HENRY BUOY  1942      62                N/A     4/ 4
1ST LANDING BUOY 2000   62 67              1009.1    3/ 3
CAPE CHARLES BUO 1951      62                N/A     4/ 4
64NM E OF VA BCH 1950   67 65   80/ 16/ 17 1008.9F   4/ 4   2/ 9
DUCK PIER NC     1948   66 65   80/ 11/ 12 1007.5F
44100 DUCK FRF   1935      65                N/A     4/ 5
44056 DUCK FRF   1930      65                N/A     3/ 6
OREGON INLET NC  1942   67 69   50/ 11/ 13 1007.3F
HATTERAS NC      1948   75 74  210/ 14/ 20 1007.2F
DIAMOND SHLS NC  1950   75 77  220/ 21/ 25 1007.5F   5/ 6   2/ 9
CAPE LOOKOUT NC  2000   77     190/ 14/ 17 1007.1F
$$



USA.gov is the U.S. government's official web portal to all federal, state and local government web resources and services.